Location: Oregon Star Party
(44.2935°N, 120.1332°W)
Time: 15:55:20
(UTC-08:00)

Amateur Radio Satellites - All Passes

Search period start: 23 November 2014 15:25
Search period end: 24 November 2014 15:25
Location: Oregon Star Party, 44.2935°N, 120.1332°W

Satellite Date Start Highest point End Downlink Frequencies (MHz)
Time Altitude Azimuth
MaSat-1 23 Nov 15:40:34 15:43:35 72° 116° (ESE) 15:46:20 437.345
STARS 23 Nov 15:40:57 15:44:58 36° 291° (WNW) 15:48:59 437.465
PHONESAT 2.4 23 Nov 15:51:41 15:54:33 21° 156° (SSE) 15:57:25 2401.200-2431.200
VERMONT LUNAR 23 Nov 16:13:16 16:16:29 31° 163° (SSE) 16:19:44 437.305
Cubesat XI-IV 23 Nov 16:17:10 16:21:24 24° 62° (ENE) 16:25:37 437.490
KKS-1 23 Nov 16:17:35 16:19:32 13° 300° (WNW) 16:21:28 437.445
JAS-2 23 Nov 16:20:53 16:28:29 83° 74° (ENE) 16:36:24 435.910
O/OREOS (USA 219) 23 Nov 16:27:57 16:32:20 55° 251° (WSW) 16:36:42 437.305
YUBILEINY 23 Nov 16:36:03 16:37:17 10° 290° (WNW) 16:38:31 435.215
CUTE-I 23 Nov 16:58:09 17:03:19 51° 70° (ENE) 17:08:31 437.470
MOZHAYETS 4 23 Nov 17:00:49 17:05:30 70° 102° (ESE) 17:10:08
RS-15 23 Nov 17:09:46 17:20:45 84° 305° (NW) 17:31:48 29.354- 29.394
AO-7 23 Nov 17:19:57 17:24:56 17° 272° (W) 17:29:58 29.400- 29.500
PHONESAT 2.4 23 Nov 17:29:21 17:32:54 43° 173° (S) 17:36:27 2401.200-2431.200
PRISM 23 Nov 17:34:25 17:38:08 29° 96° (E) 17:41:49 437.425
VERMONT LUNAR 23 Nov 17:51:09 17:54:39 46° 180° (S) 17:58:09 437.305
Cubesat XI-IV 23 Nov 17:55:56 18:01:09 51° 260° (W) 18:06:24 437.490
STRAND 1 23 Nov 18:03:30 18:07:35 24° 93° (E) 18:11:38 437.568
JAS-2 23 Nov 18:08:43 18:14:19 22° 273° (W) 18:20:06 435.910
GONETS M04 23 Nov 18:27:07 18:35:10 37° 69° (ENE) 18:43:06
CUBESAT XI-V 23 Nov 18:34:51 18:39:25 49° 99° (E) 18:43:55 437.345
CANX-2 23 Nov 18:38:03 18:38:58 11° 60° (ENE) 18:39:54 2200.000
HO-68 23 Nov 18:38:29 18:44:23 29° 57° (ENE) 18:50:16 435.675
CUTE-I 23 Nov 18:39:31 18:43:40 23° 267° (W) 18:47:50 437.470
MOZHAYETS 4 23 Nov 18:39:35 18:42:10 15° 299° (WNW) 18:44:44
PCSat 23 Nov 19:05:15 19:09:12 21° 106° (ESE) 19:13:10 145.827
PHONESAT 2.4 23 Nov 19:07:54 19:11:25 40° 190° (S) 19:14:55 2401.200-2431.200
PRISM 23 Nov 19:10:01 19:13:37 27° 293° (WNW) 19:17:12 437.425
CUTE 1.7 & AOD 2 23 Nov 19:10:30 19:13:40 21° 66° (ENE) 19:16:52 437.475
GOMX 1 23 Nov 19:22:50 19:26:32 23° 67° (ENE) 19:30:05 467.674
RS-15 23 Nov 19:25:20 19:34:55 34° 334° (NNW) 19:44:42 29.354- 29.394
UKube-1 23 Nov 19:27:30 19:29:04 12° 59° (ENE) 19:30:38 .
VERMONT LUNAR 23 Nov 19:29:36 19:32:48 30° 197° (SSW) 19:36:01 437.305
BEESAT 2 23 Nov 19:35:10 19:36:38 12° 108° (ESE) 19:38:06 435.950
BRITE-PL 23 Nov 19:37:27 19:42:13 43° 71° (ENE) 19:46:39 437.365/2234.400
Oscar 11 23 Nov 19:39:30 19:42:07 16° 63° (ENE) 19:44:44 145.826/435.025
SHINDAISAT 23 Nov 19:40:11 19:41:06 14° 242° (WSW) 19:42:01 437.305
STRAND 1 23 Nov 19:42:07 19:46:58 45° 291° (WNW) 19:51:48 437.568
SEEDS 23 Nov 19:45:51 19:49:48 42° 71° (ENE) 19:53:46 437.485
CINEMA 3 23 Nov 19:47:54 19:50:53 18° 65° (ENE) 19:53:47 145.822/145.860
DX 1 23 Nov 19:58:14 20:01:45 24° 65° (ENE) 20:05:17 434.975-435.025
AIST 2 23 Nov 19:59:10 19:59:57 10° 107° (ESE) 20:00:44 435.215
AIST 1 23 Nov 20:04:30 20:08:54 78° 279° (W) 20:13:20
AAUSAT CUBESAT 2 23 Nov 20:07:40 20:11:43 55° 73° (ENE) 20:15:48 437.432
CANX-2 23 Nov 20:10:03 20:14:16 84° 257° (WSW) 20:18:31 2200.000
CUBESAT XI-V 23 Nov 20:13:09 20:16:30 20° 297° (WNW) 20:19:50 437.345
VELOX 1 23 Nov 20:18:36 20:20:47 14° 60° (ENE) 20:22:59 145.980
COMPASS 1 23 Nov 20:21:05 20:25:15 88° 77° (ENE) 20:29:28 437.405
GONETS M04 23 Nov 20:23:48 20:32:19 54° 270° (W) 20:40:44
HO-68 23 Nov 20:24:27 20:31:34 65° 257° (WSW) 20:38:45 435.675
ZACube-1 23 Nov 20:24:56 20:28:02 20° 66° (ENE) 20:31:06 437.345
DELFI C3 23 Nov 20:25:45 20:29:30 37° 70° (ENE) 20:33:17 145.870
HUMSAT D 23 Nov 20:28:00 20:30:03 14° 62° (ENE) 20:32:07 437.325/437.525
DOVE 4 23 Nov 20:29:00 20:33:40 76° 75° (ENE) 20:38:05 437.250
50 SAT 23 Nov 20:33:42 20:35:29 13° 62° (ENE) 20:37:17 437.505
AISAT 23 Nov 20:41:45 20:45:15 23° 65° (ENE) 20:48:45 437.250
CUTE 1.7 & AOD 2 23 Nov 20:45:28 20:49:23 37° 263° (W) 20:53:20 437.475
PCSat 23 Nov 20:46:47 20:52:08 61° 305° (NW) 20:57:32 145.827
PHONESAT 2.4 23 Nov 20:47:09 20:49:42 18° 206° (SSW) 20:52:15 2401.200-2431.200
BEESAT 3 23 Nov 20:56:47 21:00:53 88° 124° (SE) 21:05:05 437.485
FUNcube-1 23 Nov 20:59:36 21:03:37 45° 72° (ENE) 21:07:36 145.935
GOMX 1 23 Nov 20:59:54 21:04:29 41° 262° (W) 21:08:48 467.674
UKube-1 23 Nov 21:00:14 21:04:36 81° 256° (WSW) 21:08:59 .
CUBEBUG 1 23 Nov 21:05:05 21:07:34 15° 61° (ENE) 21:10:02 437.445
BEESAT 2 23 Nov 21:10:11 21:14:18 75° 306° (NW) 21:18:31 435.950
Oscar 11 23 Nov 21:13:39 21:17:52 55° 260° (W) 21:22:07 145.826/435.025
CUBEBUG 2 23 Nov 21:13:53 21:18:11 88° 76° (ENE) 21:22:24 437.445
BRITE-PL 23 Nov 21:16:51 21:20:51 23° 266° (W) 21:24:38 437.365/2234.400
UWE-3 23 Nov 21:19:16 21:23:32 88° 76° (ENE) 21:27:45 435.000/436.395/437.385
SEEDS 23 Nov 21:22:59 21:25:50 18° 268° (W) 21:28:43 437.485
CINEMA 3 23 Nov 21:23:32 21:27:48 46° 261° (W) 21:31:57 145.822/145.860
ANTELSAT 23 Nov 21:32:04 21:34:07 13° 90° (E) 21:36:10 437.575/2403.000
AIST 2 23 Nov 21:33:38 21:37:53 86° 304° (NW) 21:42:12 435.215
DX 1 23 Nov 21:33:48 21:37:50 35° 262° (W) 21:41:53 434.975-435.025
ESTCUBE 1 23 Nov 21:42:37 21:46:45 35° 69° (ENE) 21:50:54 437.505/2401.250
RS-15 23 Nov 21:42:54 21:51:45 26° 9° (N) 22:00:49 29.354- 29.394
AAUSAT CUBESAT 2 23 Nov 21:45:39 21:47:45 14° 270° (W) 21:49:52 437.432
POPSAT HIP 1 23 Nov 21:45:45 21:47:05 11° 89° (E) 21:48:24 437.405
VELOX 1 23 Nov 21:52:20 21:56:49 73° 257° (WSW) 22:01:18 145.980
ZACube-1 23 Nov 22:00:14 22:04:11 38° 262° (W) 22:08:07 437.345
HUMSAT D 23 Nov 22:01:19 22:05:25 60° 259° (W) 22:09:30 437.325/437.525
DELFI C3 23 Nov 22:02:02 22:04:57 19° 267° (W) 22:07:55 145.870
50 SAT 23 Nov 22:06:19 22:10:19 62° 259° (W) 22:14:20 437.505
DOVE 4 23 Nov 22:10:27 22:11:53 11° 271° (W) 22:13:18 437.250
POLYITAN 1 23 Nov 22:15:59 22:19:29 25° 95° (E) 22:22:58 437.675
AISAT 23 Nov 22:17:28 22:21:40 39° 262° (W) 22:25:54 437.250
QB50P2 23 Nov 22:18:56 22:22:32 27° 95° (E) 22:26:07 145.880/145.840
HO-68 23 Nov 22:19:04 22:20:37 11° 276° (W) 22:22:10 435.675
TIGRISAT 23 Nov 22:26:14 22:30:28 46° 99° (E) 22:34:47 435.000
DUCHIFAT 1 23 Nov 22:26:27 22:30:14 31° 97° (E) 22:33:59 145.980
PCSat 23 Nov 22:33:47 22:36:42 14° 327° (NNW) 22:39:38 145.827
TISAT 1 23 Nov 22:34:58 22:38:44 31° 68° (ENE) 22:42:30 437.305
BEESAT 3 23 Nov 22:37:15 22:39:44 15° 324° (NW) 22:42:14 437.485
SPROUT 23 Nov 22:37:22 22:41:05 29° 68° (ENE) 22:44:48 437.525
FUNcube-1 23 Nov 22:37:30 22:40:13 17° 268° (W) 22:42:55 145.935
UNISAT 6 23 Nov 22:38:26 22:42:50 63° 101° (ESE) 22:47:18 437.425
CUBEBUG 1 23 Nov 22:39:01 22:43:26 65° 259° (WSW) 22:47:53 437.445
NANOSAT C BR1 23 Nov 22:45:14 22:49:21 51° 100° (E) 22:53:27 145.865
AUBIESAT-1 23 Nov 22:49:30 22:52:06 16° 55° (NE) 22:54:50 437.475
BEESAT 2 23 Nov 22:51:14 22:53:21 13° 326° (NW) 22:55:28 435.950
M-CUBED/EXP-1 PRIME 23 Nov 22:52:40 22:55:34 19° 56° (NE) 22:58:38 437.505
QB50P1 23 Nov 22:54:44 22:58:57 65° 102° (ESE) 23:03:08 145.935-145.965
BEESAT 23 Nov 23:01:26 23:03:09 12° 57° (ENE) 23:04:53 436.000
ANTELSAT 23 Nov 23:06:57 23:11:20 66° 286° (WNW) 23:15:48 437.575/2403.000
AIST 2 23 Nov 23:14:39 23:17:11 15° 325° (NW) 23:19:45 435.215
BUGSAT 1 23 Nov 23:17:57 23:22:05 83° 284° (WNW) 23:26:08 437.445
POPSAT HIP 1 23 Nov 23:19:15 23:23:27 68° 286° (WNW) 23:27:38 437.405
ESTCUBE 1 23 Nov 23:19:56 23:23:41 25° 266° (W) 23:27:28 437.505/2401.250
CUSAT 1 23 Nov 23:25:20 23:29:23 41° 77° (ENE) 23:34:44 437.405
DANDE 23 Nov 23:40:49 23:44:47 47° 78° (ENE) 23:50:07 436.750
ISS 23 Nov 23:42:29 23:45:12 24° 137° (SE) 23:47:55 145.825
POLYITAN 1 23 Nov 23:51:44 23:55:28 31° 292° (WNW) 23:59:10 437.675
ITUPSAT 1 23 Nov 23:52:33 23:56:51 34° 67° (ENE) 00:01:11 437.325
QB50P2 23 Nov 23:54:47 23:58:26 29° 292° (WNW) 00:02:04 145.880/145.840
RS-15 23 Nov 23:56:52 00:07:37 50° 41° (NE) 00:18:46 29.354- 29.394
DUCHIFAT 1 24 Nov 00:02:34 00:05:59 25° 293° (WNW) 00:09:24 145.980
TIGRISAT 24 Nov 00:03:49 00:06:56 19° 296° (WNW) 00:10:05 435.000
SWISSCUBE 24 Nov 00:04:05 00:08:40 47° 70° (ENE) 00:13:18 437.505
KKS-1 24 Nov 00:06:51 00:07:21 10° 58° (ENE) 00:07:51 437.445
TISAT 1 24 Nov 00:11:02 00:14:35 25° 265° (W) 00:18:09 437.305
SPROUT 24 Nov 00:13:25 00:17:08 28° 265° (W) 00:20:53 437.525
UNISAT 6 24 Nov 00:16:42 00:19:10 15° 298° (WNW) 00:21:40 437.425
NANOSAT C BR1 24 Nov 00:22:13 00:24:52 16° 297° (WNW) 00:27:30 145.865
AUBIESAT-1 24 Nov 00:22:38 00:26:35 59° 255° (WSW) 00:30:56 437.475
M-CUBED/EXP-1 PRIME 24 Nov 00:26:21 00:30:13 48° 256° (WSW) 00:34:28 437.505
QB50P1 24 Nov 00:32:19 00:34:20 13° 299° (WNW) 00:36:22 145.935-145.965
BEESAT 24 Nov 00:35:27 00:40:14 87° 75° (ENE) 00:45:05 436.000
STARS 24 Nov 01:03:54 01:07:32 26° 66° (ENE) 01:11:10 437.465
CUSAT 1 24 Nov 01:08:59 01:12:28 22° 266° (W) 01:16:44 437.405
MaSat-1 24 Nov 01:18:23 01:20:25 27° 247° (WSW) 01:22:30 437.345
ISS 24 Nov 01:18:26 01:21:40 52° 334° (NNW) 01:24:54 145.825
Oscar 19 24 Nov 01:21:09 01:26:13 53° 100° (E) 01:31:15 437.125/150
DANDE 24 Nov 01:25:15 01:28:13 18° 266° (W) 01:31:45 436.750
ITUPSAT 1 24 Nov 01:30:34 01:34:45 29° 264° (W) 01:38:58 437.325
KKS-1 24 Nov 01:38:48 01:43:15 84° 75° (ENE) 01:47:44 437.445
YUBILEINY 24 Nov 01:40:54 01:48:35 36° 84° (E) 01:56:15 435.215
SWISSCUBE 24 Nov 01:43:11 01:46:46 21° 267° (W) 01:50:23 437.505
ITAMSAT 1 24 Nov 02:09:13 02:14:21 57° 101° (E) 02:19:25 435.822/435.867
RS-15 24 Nov 02:09:27 02:20:20 60° 245° (WSW) 02:31:43 29.354- 29.394
BEESAT 24 Nov 02:17:35 02:18:44 11° 272° (W) 02:19:54 436.000
Gurwin Techsat 1B 24 Nov 02:28:24 02:33:35 50° 100° (E) 02:38:43 435.225
STARS 24 Nov 02:39:55 02:43:54 33° 263° (W) 02:47:53 437.465
HORYU 2 24 Nov 02:44:47 02:48:47 31° 96° (E) 02:52:46 437.375
ISS 24 Nov 02:56:07 02:58:49 23° 354° (N) 03:01:32 145.825
Oscar 19 24 Nov 03:01:17 03:05:11 22° 298° (WNW) 03:09:06 437.125/150
AO-7 24 Nov 03:22:54 03:30:07 31° 95° (E) 03:37:17 29.400- 29.500
JAS-2 24 Nov 03:33:43 03:35:37 11° 80° (E) 03:37:28 435.910
YUBILEINY 24 Nov 03:36:25 03:45:00 55° 285° (WNW) 03:53:37 435.215
BEESAT 3 24 Nov 03:38:17 03:40:48 15° 36° (NE) 03:43:18 437.485
SO-50 24 Nov 03:42:03 03:46:09 35° 116° (ESE) 03:50:24 436.795
ITAMSAT 1 24 Nov 03:49:37 03:53:25 21° 299° (WNW) 03:57:12 435.822/435.867
PCSat 24 Nov 03:50:10 03:54:50 28° 45° (NE) 03:59:27 145.827
BEESAT 2 24 Nov 03:51:43 03:54:36 18° 38° (NE) 03:57:28 435.950
MOZHAYETS 4 24 Nov 04:04:20 04:08:54 78° 75° (ENE) 04:13:33
Gurwin Techsat 1B 24 Nov 04:09:03 04:13:13 24° 297° (WNW) 04:17:23 435.225
AIST 2 24 Nov 04:16:39 04:19:32 17° 37° (NE) 04:22:22 435.215
HORYU 2 24 Nov 04:21:34 04:25:23 28° 293° (WNW) 04:29:12 437.375
RS-15 24 Nov 04:26:38 04:30:12 12° 266° (W) 04:33:50 29.354- 29.394
PRISM 24 Nov 04:27:05 04:30:40 28° 67° (ENE) 04:34:16 437.425
ISS 24 Nov 04:33:15 04:36:10 28° 14° (NNE) 04:39:05 145.825
O/OREOS (USA 219) 24 Nov 05:04:59 05:07:08 13° 98° (E) 05:09:17 437.305
CUTE-I 24 Nov 05:14:47 05:18:17 18° 91° (E) 05:21:46 437.470
JAS-2 24 Nov 05:14:57 05:22:14 68° 101° (E) 05:28:37 435.910
AO-7 24 Nov 05:15:09 05:23:23 64° 294° (WNW) 05:31:35 29.400- 29.500
BEESAT 3 24 Nov 05:15:26 05:19:40 90° 236° (SW) 05:23:49 437.485
STRAND 1 24 Nov 05:20:43 05:25:30 41° 68° (ENE) 05:30:19 437.568
SO-50 24 Nov 05:22:36 05:26:43 33° 316° (NW) 05:30:59 436.795
BEESAT 2 24 Nov 05:29:10 05:33:23 73° 238° (WSW) 05:37:32 435.950
PCSat 24 Nov 05:33:16 05:38:33 54° 245° (WSW) 05:43:48 145.827
CUBESAT XI-V 24 Nov 05:39:44 05:44:22 58° 73° (ENE) 05:49:01 437.345
YUBILEINY 24 Nov 05:41:21 05:44:14 12° 309° (NW) 05:47:06 435.215
MOZHAYETS 4 24 Nov 05:45:13 05:46:43 11° 272° (W) 05:48:12
AIST 2 24 Nov 05:54:23 05:58:43 81° 237° (WSW) 06:02:59 435.215
PRISM 24 Nov 06:02:32 06:06:10 28° 264° (W) 06:09:50 437.425
ISS 24 Nov 06:09:46 06:13:04 76° 213° (SSW) 06:16:22 145.825
AIST 1 24 Nov 06:10:38 06:14:31 30° 74° (ENE) 06:18:21
Cubesat XI-IV 24 Nov 06:11:30 06:16:46 57° 101° (E) 06:21:59 437.490
O/OREOS (USA 219) 24 Nov 06:41:31 06:45:58 64° 296° (WNW) 06:50:26 437.305
CUTE-I 24 Nov 06:53:33 06:58:50 64° 288° (WNW) 07:04:03 437.470
STRAND 1 24 Nov 07:00:30 07:04:48 27° 265° (W) 07:09:09 437.568
JAS-2 24 Nov 07:00:46 07:06:33 26° 303° (WNW) 07:11:52 435.910
AO-7 24 Nov 07:09:45 07:14:35 17° 316° (NW) 07:19:26 29.400- 29.500
CUBESAT XI-V 24 Nov 07:19:15 07:22:11 16° 270° (W) 07:25:08 437.345
GONETS M04 24 Nov 07:30:24 07:38:18 39° 85° (E) 07:46:14
AIST 1 24 Nov 07:48:28 07:52:04 25° 272° (W) 07:55:37
ISS 24 Nov 07:48:32 07:49:11 10° 230° (SW) 07:49:50 145.825
HO-68 24 Nov 07:51:17 07:56:45 23° 91° (E) 08:02:09 435.675
Cubesat XI-IV 24 Nov 07:52:28 07:56:27 22° 299° (WNW) 08:00:24 437.490
CANX-2 24 Nov 07:55:23 07:57:58 16° 91° (E) 08:00:32 2200.000
COMPASS 1 24 Nov 08:05:21 08:07:23 13° 90° (E) 08:09:26 437.405
DOVE 4 24 Nov 08:27:49 08:30:22 16° 92° (E) 08:32:56 437.250
CUTE 1.7 & AOD 2 24 Nov 08:29:19 08:33:11 32° 96° (E) 08:37:03 437.475
ANTELSAT 24 Nov 08:33:33 08:35:54 15° 62° (ENE) 08:38:14 437.575/2403.000
CUTE-I 24 Nov 08:37:27 08:37:51 10° 307° (NW) 08:38:16 437.470
POPSAT HIP 1 24 Nov 08:40:57 08:42:41 12° 60° (ENE) 08:44:25 437.405
UKube-1 24 Nov 08:48:05 08:50:36 15° 91° (E) 08:53:05 .
GOMX 1 24 Nov 08:59:57 09:03:58 46° 99° (E) 09:08:01 467.674
Oscar 11 24 Nov 09:00:00 09:03:31 24° 94° (E) 09:07:02 145.826/435.025
SEEDS 24 Nov 09:04:33 09:08:49 68° 102° (ESE) 09:13:05 437.485
CUBEBUG 2 24 Nov 09:04:43 09:07:18 16° 92° (E) 09:09:54 437.445
UWE-3 24 Nov 09:09:02 09:11:31 15° 91° (E) 09:14:01 435.000/436.395/437.385
POLYITAN 1 24 Nov 09:11:18 09:14:46 25° 67° (ENE) 09:18:14 437.675
QB50P2 24 Nov 09:13:59 09:17:33 26° 67° (ENE) 09:21:06 145.880/145.840
CINEMA 3 24 Nov 09:16:53 09:20:40 32° 97° (E) 09:24:32 145.822/145.860
BRITE-PL 24 Nov 09:18:56 09:23:06 78° 285° (WNW) 09:27:16 437.365/2234.400
DX 1 24 Nov 09:20:36 09:24:34 33° 97° (E) 09:28:30 434.975-435.025
DUCHIFAT 1 24 Nov 09:21:05 09:24:49 30° 68° (ENE) 09:28:32 145.980
AAUSAT CUBESAT 2 24 Nov 09:25:16 09:29:31 86° 103° (ESE) 09:33:46 437.432
GONETS M04 24 Nov 09:26:24 09:34:53 50° 286° (WNW) 09:43:28
TIGRISAT 24 Nov 09:27:00 09:31:05 48° 72° (ENE) 09:35:12 435.000
CANX-2 24 Nov 09:30:03 09:34:13 51° 287° (WNW) 09:38:22 2200.000
HO-68 24 Nov 09:37:55 09:45:05 73° 290° (WNW) 09:52:11 435.675
COMPASS 1 24 Nov 09:39:19 09:43:30 59° 286° (WNW) 09:47:41 437.405
UNISAT 6 24 Nov 09:39:26 09:43:40 68° 74° (ENE) 09:47:55 437.425
NANOSAT C BR1 24 Nov 09:39:45 09:43:50 47° 72° (ENE) 09:47:56 145.865
DELFI C3 24 Nov 09:40:02 09:44:06 53° 100° (E) 09:48:09 145.870
VELOX 1 24 Nov 09:42:43 09:45:53 19° 93° (E) 09:49:02 145.980
HUMSAT D 24 Nov 09:45:14 09:48:15 19° 93° (E) 09:51:16 437.325/437.525
50 SAT 24 Nov 09:46:55 09:49:30 16° 92° (E) 09:52:04 437.505
ZACube-1 24 Nov 09:47:19 09:51:09 33° 97° (E) 09:55:01 437.345
QB50P1 24 Nov 09:49:15 09:53:27 61° 73° (ENE) 09:57:40 145.935-145.965
DOVE 4 24 Nov 10:04:26 10:08:25 46° 288° (WNW) 10:12:28 437.250
CUTE 1.7 & AOD 2 24 Nov 10:05:30 10:08:59 25° 293° (WNW) 10:12:29 437.475
AISAT 24 Nov 10:07:09 10:11:12 34° 97° (E) 10:15:13 437.250
ANTELSAT 24 Nov 10:08:02 10:12:15 59° 259° (W) 10:16:29 437.575/2403.000
BUGSAT 1 24 Nov 10:09:33 10:13:49 85° 75° (ENE) 10:18:05 437.445
POPSAT HIP 1 24 Nov 10:13:46 10:18:01 73° 258° (WSW) 10:22:17 437.405
FUNcube-1 24 Nov 10:22:39 10:26:53 80° 103° (ESE) 10:31:10 145.935
UKube-1 24 Nov 10:22:51 10:27:06 54° 288° (WNW) 10:31:19 .
CUBEBUG 1 24 Nov 10:27:30 10:30:49 21° 93° (E) 10:34:05 437.445
SO-50 24 Nov 10:32:26 10:34:45 13° 29° (NNE) 10:37:05 436.795
Oscar 11 24 Nov 10:35:50 10:39:45 34° 291° (WNW) 10:43:41 145.826/435.025
GOMX 1 24 Nov 10:39:09 10:41:48 17° 296° (WNW) 10:44:27 467.674
CUBEBUG 2 24 Nov 10:40:13 10:44:17 49° 288° (WNW) 10:48:25 437.445
SEEDS 24 Nov 10:42:09 10:44:07 13° 299° (WNW) 10:46:06 437.485
UWE-3 24 Nov 10:44:16 10:48:22 51° 287° (WNW) 10:52:31 435.000/436.395/437.385
POLYITAN 1 24 Nov 10:46:46 10:50:36 32° 263° (W) 10:54:26 437.675
QB50P2 24 Nov 10:49:38 10:53:23 30° 264° (W) 10:57:09 145.880/145.840
CINEMA 3 24 Nov 10:54:26 10:57:46 24° 293° (WNW) 11:01:10 145.822/145.860
DX 1 24 Nov 10:57:08 11:00:40 25° 294° (WNW) 11:04:11 434.975-435.025
DUCHIFAT 1 24 Nov 10:57:08 11:00:41 26° 265° (W) 11:04:16 145.980
AAUSAT CUBESAT 2 24 Nov 11:03:50 11:04:33 10° 300° (WNW) 11:05:15 437.432
Oscar 19 24 Nov 11:03:51 11:06:10 13° 57° (ENE) 11:08:29 437.125/150
TIGRISAT 24 Nov 11:05:32 11:08:09 16° 269° (W) 11:10:46 435.000
ESTCUBE 1 24 Nov 11:10:20 11:14:52 61° 101° (E) 11:19:20 437.505/2401.250
DELFI C3 24 Nov 11:16:36 11:19:00 15° 297° (WNW) 11:21:24 145.870
NANOSAT C BR1 24 Nov 11:17:17 11:19:59 16° 268° (W) 11:22:42 145.865
VELOX 1 24 Nov 11:18:29 11:22:42 44° 290° (WNW) 11:26:52 145.980
UNISAT 6 24 Nov 11:19:33 11:20:57 11° 271° (W) 11:22:21 437.425
HUMSAT D 24 Nov 11:20:21 11:24:13 38° 289° (WNW) 11:28:06 437.325/437.525
50 SAT 24 Nov 11:21:11 11:25:02 43° 288° (WNW) 11:28:54 437.505
ZACube-1 24 Nov 11:24:02 11:27:24 24° 293° (WNW) 11:30:48 437.345
HO-68 24 Nov 11:27:27 11:31:35 17° 310° (NW) 11:35:43 435.675
QB50P1 24 Nov 11:27:47 11:29:45 13° 270° (W) 11:31:44 145.935-145.965
GONETS M04 24 Nov 11:32:41 11:34:22 11° 312° (NW) 11:36:04
AISAT 24 Nov 11:44:06 11:47:42 25° 294° (WNW) 11:51:17 437.250
YUBILEINY 24 Nov 11:48:59 11:54:48 19° 58° (ENE) 12:00:34 435.215
ITAMSAT 1 24 Nov 11:52:16 11:55:12 15° 58° (ENE) 11:58:07 435.822/435.867
TISAT 1 24 Nov 11:53:57 11:58:00 44° 99° (E) 12:02:01 437.305
SPROUT 24 Nov 11:58:10 12:02:17 44° 99° (E) 12:06:21 437.525
FUNcube-1 24 Nov 12:01:28 12:02:39 11° 300° (WNW) 12:03:50 145.935
CUBEBUG 1 24 Nov 12:03:16 12:07:21 39° 290° (WNW) 12:11:22 437.445
AUBIESAT-1 24 Nov 12:05:56 12:07:38 12° 92° (E) 12:09:19 437.475
SWISSCUBE 24 Nov 12:06:07 12:06:54 10° 87° (E) 12:07:40 437.505
M-CUBED/EXP-1 PRIME 24 Nov 12:09:09 12:11:44 14° 94° (E) 12:14:17 437.505
SO-50 24 Nov 12:11:37 12:16:23 54° 50° (NE) 12:21:11 436.795
Gurwin Techsat 1B 24 Nov 12:14:29 12:17:11 14° 57° (ENE) 12:19:54 435.225
BEESAT 24 Nov 12:35:14 12:38:45 20° 92° (E) 12:42:14 436.000
AO-7 24 Nov 12:37:05 12:40:27 13° 39° (NE) 12:43:50 29.400- 29.500
Oscar 19 24 Nov 12:39:37 12:44:44 88° 75° (ENE) 12:49:54 437.125/150
CUSAT 1 24 Nov 12:41:54 12:44:19 28° 96° (E) 12:46:38 437.405
ESTCUBE 1 24 Nov 12:48:31 12:51:15 16° 299° (WNW) 12:53:59 437.505/2401.250
DANDE 24 Nov 12:59:55 13:02:39 43° 98° (E) 13:05:10 436.750
ITAMSAT 1 24 Nov 13:28:47 13:34:00 83° 256° (WSW) 13:39:16 435.822/435.867
ITUPSAT 1 24 Nov 13:28:57 13:33:46 65° 102° (ESE) 13:38:31 437.325
KKS-1 24 Nov 13:30:06 13:32:33 15° 91° (E) 13:35:00 437.445
TISAT 1 24 Nov 13:30:38 13:33:32 18° 296° (WNW) 13:36:24 437.305
SPROUT 24 Nov 13:35:03 13:38:04 19° 296° (WNW) 13:41:03 437.525
AUBIESAT-1 24 Nov 13:38:17 13:43:14 90° 108° (ESE) 13:48:05 437.475
SWISSCUBE 24 Nov 13:40:35 13:45:26 89° 284° (WNW) 13:50:13 437.505
M-CUBED/EXP-1 PRIME 24 Nov 13:42:19 13:47:16 78° 290° (WNW) 13:52:09 437.505
YUBILEINY 24 Nov 13:44:21 13:53:07 83° 81° (E) 14:01:49 435.215
HORYU 2 24 Nov 13:45:03 13:49:05 35° 69° (ENE) 13:53:07 437.375
Gurwin Techsat 1B 24 Nov 13:51:04 13:56:23 90° 80° (E) 14:01:45 435.225
SO-50 24 Nov 13:52:51 13:56:37 23° 248° (WSW) 14:00:23 436.795
BEESAT 24 Nov 14:12:14 14:16:51 48° 290° (WNW) 14:21:27 436.000
Oscar 19 24 Nov 14:23:03 14:24:46 12° 273° (W) 14:26:30 437.125/150
AO-7 24 Nov 14:23:25 14:31:16 50° 62° (ENE) 14:39:10 29.400- 29.500
RS-15 24 Nov 14:27:18 14:34:17 20° 99° (E) 14:41:13 29.354- 29.394
STARS 24 Nov 14:28:07 14:32:15 39° 98° (E) 14:36:22 437.465
MaSat-1 24 Nov 14:48:43 14:51:01 20° 111° (ESE) 14:53:11 437.345
KKS-1 24 Nov 15:05:13 15:09:35 58° 287° (WNW) 15:13:56 437.445
ITUPSAT 1 24 Nov 15:08:08 15:11:09 17° 299° (WNW) 15:14:09 437.325
O/OREOS (USA 219) 24 Nov 15:10:50 15:14:57 35° 59° (ENE) 15:19:03 437.305
ITAMSAT 1 24 Nov 15:13:28 15:14:17 10° 273° (W) 15:15:05 435.822/435.867
AUBIESAT-1 24 Nov 15:14:53 15:17:31 15° 306° (NW) 15:20:08 437.475
PHONESAT 2.4 24 Nov 15:19:10 15:21:56 20° 155° (SSE) 15:24:43 2401.200-2431.200
M-CUBED/EXP-1 PRIME 24 Nov 15:19:24 15:21:30 13° 308° (NW) 15:23:37 437.505
SWISSCUBE 24 Nov 15:20:41 15:22:33 12° 303° (WNW) 15:24:25 437.505
